Location: *
(51.5000°N, 0.1100°W)
Time: 17:39:44
(UTC+00:00)

Meteor 2-5 Rocket - Pass Details

Date: 25 May 2024
Orbit: 832 x 911 km, 81.2° (Epoch: 16 June)

Event Time Altitude Azimuth Distance (km) Brightness Sun altitude
Exits shadow 02:32:13 - 190° (S) 2,666 5.7 -9.9°
Reaches altitude 10° 02:32:26 10° 190° (S) 2,583 5.7 -9.9°
Maximum altitude 02:38:22 89° 103° (ESE) 919 3.9 -9.4°
Drops below altitude 10° 02:44:22 10° 13° (NNE) 2,611 7.4 -8.8°
Sets 02:46:50 0° 14° (NNE) 3,553 8.3 -8.5°
